<?xml version="1.0"?>
<gpx xmlns="http://www.topografix.com/GPX/1/1" xmlns:xsi="http://www.w3.org/2001/XMLSchema-instance" version="1.1" creator="GPX RubyGem 1.0.0 -- http://dougfales.github.io/gpx/" xsi:schemaLocation="http://www.topografix.com/GPX/1/1 http://www.topografix.com/GPX/1/1/gpx.xsd">
  <metadata>
    <name/>
    <time>2026-05-10T20:33:48+00:00</time>
    <bound minlat="90.0" minlon="180.0" maxlat="-90.0" maxlon="-180.0"/>
  </metadata>
  <trk>
    <name/>
    <trkseg>
      <trkpt lat="50.968966" lon="14.597421">
        <time>1970-01-01T00:00:00+00:00</time>
        <ele>469.0</ele>
      </trkpt>
      <trkpt lat="50.96899" lon="14.597554">
        <time>1970-01-01T00:00:00+00:00</time>
        <ele>470.0</ele>
      </trkpt>
      <trkpt lat="50.969215" lon="14.597426">
        <time>1970-01-01T00:00:00+00:00</time>
        <ele>471.0</ele>
      </trkpt>
      <trkpt lat="50.969293" lon="14.597424">
        <time>1970-01-01T00:00:00+00:00</time>
        <ele>472.0</ele>
      </trkpt>
      <trkpt lat="50.969551" lon="14.597426">
        <time>1970-01-01T00:00:00+00:00</time>
        <ele>472.0</ele>
      </trkpt>
      <trkpt lat="50.969547" lon="14.597603">
        <time>1970-01-01T00:00:00+00:00</time>
        <ele>474.0</ele>
      </trkpt>
      <trkpt lat="50.969621" lon="14.597683">
        <time>1970-01-01T00:00:00+00:00</time>
        <ele>475.0</ele>
      </trkpt>
      <trkpt lat="50.96965" lon="14.597539">
        <time>1970-01-01T00:00:00+00:00</time>
        <ele>473.0</ele>
      </trkpt>
      <trkpt lat="50.969694" lon="14.597561">
        <time>1970-01-01T00:00:00+00:00</time>
        <ele>473.0</ele>
      </trkpt>
      <trkpt lat="50.969694" lon="14.597561">
        <time>1970-01-01T00:00:00+00:00</time>
        <ele>473.0</ele>
      </trkpt>
      <trkpt lat="50.96965" lon="14.597539">
        <time>1970-01-01T00:00:00+00:00</time>
        <ele>473.0</ele>
      </trkpt>
      <trkpt lat="50.969621" lon="14.597683">
        <time>1970-01-01T00:00:00+00:00</time>
        <ele>475.0</ele>
      </trkpt>
      <trkpt lat="50.969547" lon="14.597603">
        <time>1970-01-01T00:00:00+00:00</time>
        <ele>474.0</ele>
      </trkpt>
      <trkpt lat="50.969551" lon="14.597426">
        <time>1970-01-01T00:00:00+00:00</time>
        <ele>472.0</ele>
      </trkpt>
      <trkpt lat="50.969293" lon="14.597424">
        <time>1970-01-01T00:00:00+00:00</time>
        <ele>472.0</ele>
      </trkpt>
      <trkpt lat="50.969215" lon="14.597426">
        <time>1970-01-01T00:00:00+00:00</time>
        <ele>471.0</ele>
      </trkpt>
      <trkpt lat="50.96899" lon="14.597554">
        <time>1970-01-01T00:00:00+00:00</time>
        <ele>470.0</ele>
      </trkpt>
      <trkpt lat="50.968966" lon="14.597421">
        <time>1970-01-01T00:00:00+00:00</time>
        <ele>469.0</ele>
      </trkpt>
    </trkseg>
  </trk>
</gpx>
